| time (UTC) | temp F | wind direction | speed knots | gust knots | rain 1hr in | rain 24hr in | rain mn in | humidity % | barometer mb |
| 20260509150039 | 62 | 212 | 3.5 | 7.8 | 0.00 | 0.00 | 0.00 | 77 | 1005.5 |
| 20260509145019 | 61 | 244 | 3.5 | 8.7 | 0.00 | 0.00 | 0.00 | 78 | 1005.5 |
| 20260509144036 | 60 | 247 | 2.6 | 7.8 | 0.00 | 0.00 | 0.00 | 80 | 1005.5 |
| 20260509143016 | 60 | 207 | 2.6 | 11.3 | 0.00 | 0.00 | 0.00 | 81 | 1005.6 |
| 20260509142036 | 59 | 221 | 2.6 | 7.8 | 0.00 | 0.00 | 0.00 | 82 | 1005.7 |
| 20260509141100 | 58 | 257 | 2.6 | 7.0 | 0.00 | 0.00 | 0.00 | 84 | 1005.7 |
| 20260509140017 | 57 | 233 | 1.7 | 5.2 | 0.00 | 0.00 | 0.00 | 85 | 1005.7 |
| 20260509135017 | 56 | 215 | 2.6 | 7.8 | 0.00 | 0.00 | 0.00 | 86 | 1005.9 |
| 20260509134017 | 55 | 219 | 2.6 | 7.0 | 0.00 | 0.00 | 0.00 | 88 | 1006.4 |
| 20260509133017 | 54 | 221 | 2.6 | 7.0 | 0.00 | 0.00 | 0.00 | 90 | 1007.1 |
| 20260509132038 | 53 | 185 | 2.6 | 6.1 | 0.00 | 0.00 | 0.00 | 91 | 1008.0 |
| 20260509131018 | 52 | 169 | 1.7 | 7.0 | 0.00 | 0.00 | 0.00 | 92 | 1009.1 |
| 20260509130018 | 52 | 200 | 1.7 | 7.0 | 0.00 | 0.00 | 0.00 | 93 | 1009.6 |
| 20260509125018 | 51 | 84 | 1.7 | 4.3 | 0.00 | 0.00 | 0.00 | 94 | 1009.7 |
| 20260509124018 | 50 | 77 | 1.7 | 3.5 | 0.00 | 0.00 | 0.00 | 94 | 1009.8 |
| 20260509123018 | 50 | 241 | 1.7 | 6.1 | 0.00 | 0.00 | 0.00 | 95 | 1009.9 |
| 20260509122016 | 50 | 34 | 1.7 | 5.2 | 0.00 | 0.00 | 0.00 | 95 | 1009.9 |
| 20260509121019 | 50 | 210 | 1.7 | 4.3 | 0.00 | 0.00 | 0.00 | 95 | 1009.9 |
| 20260509120019 | 50 | 235 | 1.7 | 3.5 | 0.00 | 0.00 | 0.00 | 95 | 1009.9 |
| 20260509115019 | 49 | 219 | 1.7 | 4.3 | 0.00 | 0.00 | 0.00 | 95 | 1009.4 |
| 20260509114036 | 49 | 162 | 1.7 | 5.2 | 0.00 | 0.00 | 0.00 | 95 | 1009.2 |
| 20260509113016 | 49 | 173 | 1.7 | 3.5 | 0.00 | 0.00 | 0.00 | 95 | 1009.0 |
| 20260509112037 | 49 | 150 | 1.7 | 3.5 | 0.00 | 0.00 | 0.00 | 95 | 1009.0 |
| 20260509111020 | 49 | 192 | 1.7 | 4.3 | 0.00 | 0.00 | 0.00 | 95 | 1009.1 |
| 20260509110040 | 49 | 171 | 0.9 | 3.5 | 0.00 | 0.00 | 0.00 | 95 | 1009.1 |
| 20260509105017 | 49 | 174 | 1.7 | 3.5 | 0.00 | 0.00 | 0.00 | 95 | 1009.1 |
| 20260509104017 | 49 | 146 | 1.7 | 4.3 | 0.00 | 0.00 | 0.00 | 95 | 1009.3 |
| 20260509103017 | 49 | 137 | 0.9 | 3.5 | 0.00 | 0.00 | 0.00 | 95 | 1009.2 |
| 20260509102018 | 49 | 134 | 1.7 | 3.5 | 0.00 | 0.00 | 0.00 | 95 | 1009.3 |
| 20260509101018 | 49 | 153 | 0.9 | 2.6 | 0.00 | 0.00 | 0.00 | 95 | 1009.4 |
| 20260509100018 | 48 | 192 | 0.9 | 4.3 | 0.00 | 0.00 | 0.00 | 95 | 1009.4 |
| 20260509095018 | 48 | 165 | 0.9 | 2.6 | 0.00 | 0.00 | 0.00 | 95 | 1009.4 |
| 20260509094038 | 48 | 150 | 0.9 | 2.6 | 0.00 | 0.00 | 0.00 | 95 | 1009.4 |
| 20260509093018 | 48 | 132 | 0.9 | 2.6 | 0.00 | 0.00 | 0.00 | 95 | 1009.5 |
| 20260509092016 | 48 | 119 | 0.9 | 1.7 | 0.00 | 0.00 | 0.00 | 94 | 1009.5 |
| 20260509091019 | 48 | 120 | 0.9 | 1.7 | 0.00 | 0.00 | 0.00 | 94 | 1009.5 |
| 20260509090019 | 49 | 130 | 0.9 | 1.7 | 0.00 | 0.00 | 0.00 | 94 | 1009.4 |
| 20260509085019 | 49 | 117 | 0.9 | 1.7 | 0.00 | 0.00 | 0.00 | 94 | 1009.4 |
| 20260509084016 | 49 | 120 | 0.9 | 1.7 | 0.00 | 0.00 | 0.00 | 94 | 1009.3 |
| 20260509083036 | 49 | 112 | 0.9 | 1.7 | 0.00 | 0.00 | 0.00 | 94 | 1009.3 |
| 20260509082016 | 49 | 135 | 0.9 | 2.6 | 0.00 | 0.00 | 0.00 | 94 | 1009.1 |
| 20260509081020 | 50 | 113 | 0.9 | 1.7 | 0.00 | 0.00 | 0.00 | 93 | 1009.1 |
| 20260509080017 | 50 | 106 | 0.9 | 2.6 | 0.00 | 0.00 | 0.00 | 93 | 1009.1 |
| 20260509075017 | 50 | 111 | 0.9 | 3.5 | 0.00 | 0.00 | 0.00 | 93 | 1009.0 |
| 20260509074017 | 51 | 92 | 1.7 | 2.6 | 0.00 | 0.00 | 0.00 | 93 | 1008.8 |
| 20260509073017 | 51 | 144 | 0.9 | 3.5 | 0.00 | 0.00 | 0.00 | 92 | 1008.8 |
| 20260509072017 | 51 | 107 | 0.9 | 2.6 | 0.00 | 0.00 | 0.00 | 92 | 1008.6 |
| 20260509071018 | 51 | 86 | 0.9 | 1.7 | 0.00 | 0.00 | 0.00 | 92 | 1008.4 |
| 20260509070018 | 51 | 103 | 0.9 | 2.6 | 0.00 | 0.00 | 0.00 | 91 | 1008.2 |
| 20260509065018 | 51 | 80 | 0.9 | 2.6 | 0.00 | 0.00 | 0.00 | 91 | 1008.1 |
| 20260509064018 | 51 | 77 | 0.9 | 2.6 | 0.00 | 0.00 | 0.00 | 90 | 1007.7 |
| 20260509063018 | 52 | 83 | 0.9 | 1.7 | 0.00 | 0.00 | 0.00 | 90 | 1007.4 |
| 20260509062015 | 52 | 81 | 0.9 | 2.6 | 0.00 | 0.00 | 0.00 | 89 | 1007.3 |
| 20260509061019 | 52 | 117 | 0.9 | 1.7 | 0.00 | 0.00 | 0.00 | 89 | 1007.4 |
| 20260509060019 | 53 | 112 | 0.9 | 2.6 | 0.00 | 0.00 | 0.00 | 88 | 1007.5 |
| 20260509055019 | 53 | 77 | 0.9 | 2.6 | 0.00 | 0.00 | 0.00 | 88 | 1007.5 |
| 20260509054016 | 53 | 165 | 0.9 | 6.1 | 0.00 | 0.00 | 0.00 | 88 | 1007.4 |
| 20260509053017 | 53 | 85 | 0.9 | 2.6 | 0.00 | 0.00 | 0.00 | 88 | 1007.4 |
| 20260509052015 | 53 | 105 | 0.9 | 2.6 | 0.00 | 0.00 | 0.00 | 88 | 1007.6 |
| 20260509051039 | 53 | 90 | 0.9 | 3.5 | 0.00 | 0.00 | 0.00 | 89 | 1007.6 |
| 20260509050017 | 53 | 97 | 0.9 | 2.6 | 0.00 | 0.00 | 0.00 | 89 | 1007.6 |
| 20260509045017 | 53 | 78 | 0.9 | 1.7 | 0.00 | 0.00 | 0.00 | 88 | 1007.6 |
| 20260509044036 | 53 | 90 | 1.7 | 3.5 | 0.00 | 0.00 | 0.00 | 88 | 1007.6 |
| 20260509043016 | 54 | 95 | 1.7 | 2.6 | 0.00 | 0.00 | 0.00 | 87 | 1007.5 |
| 20260509042017 | 54 | 102 | 1.7 | 2.6 | 0.00 | 0.00 | 0.00 | 87 | 1007.4 |
| 20260509041018 | 54 | 105 | 0.9 | 3.5 | 0.00 | 0.00 | 0.00 | 86 | 1007.4 |
| 20260509040017 | 54 | 89 | 1.7 | 2.6 | 0.00 | 0.00 | 0.00 | 85 | 1007.3 |
| 20260509035017 | 55 | 101 | 1.7 | 2.6 | 0.00 | 0.00 | 0.00 | 84 | 1007.2 |
| 20260509034017 | 55 | 122 | 1.7 | 3.5 | 0.00 | 0.00 | 0.00 | 84 | 1007.2 |
| 20260509033018 | 55 | 102 | 1.7 | 3.5 | 0.00 | 0.00 | 0.00 | 83 | 1007.1 |
| 20260509032038 | 56 | 99 | 1.7 | 2.6 | 0.00 | 0.00 | 0.00 | 81 | 1007.0 |
| 20260509031019 | 56 | 122 | 1.7 | 3.5 | 0.00 | 0.00 | 0.00 | 79 | 1006.9 |
| 20260509030016 | 57 | 197 | 0.9 | 4.3 | 0.00 | 0.00 | 0.00 | 78 | 1006.9 |
| 20260509025016 | 57 | 134 | 0.9 | 2.6 | 0.00 | 0.00 | 0.00 | 76 | 1006.9 |
| 20260509024019 | 58 | 188 | 0.9 | 3.5 | 0.00 | 0.00 | 0.00 | 75 | 1006.9 |
| 20260509023019 | 58 | 190 | 0.9 | 4.3 | 0.00 | 0.00 | 0.00 | 75 | 1006.9 |
| 20260509022016 | 58 | 220 | 1.7 | 6.1 | 0.00 | 0.00 | 0.00 | 74 | 1006.9 |
| 20260509021017 | 58 | 209 | 0.9 | 3.5 | 0.00 | 0.00 | 0.00 | 75 | 1006.9 |
| 20260509020017 | 59 | 190 | 0.9 | 4.3 | 0.00 | 0.00 | 0.00 | 74 | 1006.7 |
| 20260509015020 | 59 | 171 | 0.9 | 3.5 | 0.00 | 0.00 | 0.00 | 74 | 1006.6 |
| 20260509014017 | 59 | 171 | 1.7 | 3.5 | 0.00 | 0.00 | 0.00 | 74 | 1006.5 |
| 20260509013037 | 60 | 173 | 1.7 | 6.1 | 0.00 | 0.00 | 0.00 | 73 | 1006.5 |
| 20260509012018 | 60 | 188 | 1.7 | 7.8 | 0.00 | 0.00 | 0.00 | 71 | 1006.4 |
| 20260509011018 | 61 | 112 | 0.9 | 2.6 | 0.00 | 0.00 | 0.00 | 68 | 1006.5 |
| 20260509010017 | 61 | 115 | 0.9 | 2.6 | 0.00 | 0.00 | 0.00 | 66 | 1006.4 |
| 20260509005018 | 62 | 144 | 1.7 | 5.2 | 0.00 | 0.00 | 0.00 | 63 | 1006.5 |
| 20260509004018 | 62 | 135 | 1.7 | 3.5 | 0.00 | 0.00 | 0.00 | 60 | 1006.4 |
| 20260509003038 | 63 | 154 | 1.7 | 3.5 | 0.00 | 0.00 | 0.00 | 60 | 1006.4 |
| 20260509002018 | 63 | 211 | 1.7 | 3.5 | 0.00 | 0.00 | 0.00 | 59 | 1006.3 |
| 20260509001019 | 64 | 229 | 2.6 | 7.0 | 0.00 | 0.00 | 0.00 | 59 | 1006.4 |
| 20260509000016 | 65 | 212 | 1.7 | 6.1 | 0.00 | 0.00 | 0.00 | 57 | 1006.3 |
| 20260508235019 | 65 | 237 | 1.7 | 4.3 | 0.00 | 0.00 | 0.00 | 57 | 1006.4 |
| 20260508234119 | 66 | 212 | 1.7 | 5.2 | 0.00 | 0.00 | 0.00 | 57 | 1006.4 |
| 20260508233019 | 66 | 236 | 1.7 | 5.2 | 0.00 | 0.00 | 0.00 | 57 | 1006.4 |
| 20260508232016 | 67 | 202 | 1.7 | 5.2 | 0.00 | 0.01 | 0.00 | 58 | 1006.5 |
| 20260508231036 | 67 | 221 | 2.6 | 6.1 | 0.00 | 0.01 | 0.00 | 55 | 1006.4 |
| 20260508230017 | 67 | 224 | 1.7 | 5.2 | 0.00 | 0.01 | 0.00 | 58 | 1006.5 |
| 20260508225020 | 67 | 228 | 1.7 | 4.3 | 0.00 | 0.01 | 0.00 | 57 | 1006.6 |
| 20260508224017 | 67 | 223 | 3.5 | 7.8 | 0.00 | 0.01 | 0.00 | 54 | 1006.6 |
| 20260508223037 | 66 | 229 | 1.7 | 5.2 | 0.00 | 0.01 | 0.00 | 57 | 1006.6 |
| 20260508222018 | 66 | 238 | 2.6 | 6.1 | 0.00 | 0.01 | 0.00 | 56 | 1006.6 |
| 20260508221017 | 66 | 232 | 1.7 | 5.2 | 0.00 | 0.01 | 0.00 | 55 | 1006.6 |
| 20260508220018 | 67 | 212 | 1.7 | 7.0 | 0.00 | 0.01 | 0.00 | 55 | 1006.7 |
| 20260508215018 | 67 | 234 | 1.7 | 6.1 | 0.00 | 0.01 | 0.00 | 56 | 1006.7 |
| 20260508214018 | 67 | 212 | 2.6 | 6.1 | 0.00 | 0.01 | 0.00 | 53 | 1006.7 |
| 20260508213018 | 68 | 220 | 2.6 | 10.4 | 0.00 | 0.01 | 0.00 | 52 | 1006.7 |
| 20260508212038 | 68 | 226 | 2.6 | 8.7 | 0.00 | 0.01 | 0.00 | 53 | 1006.7 |
| 20260508211019 | 67 | 222 | 1.7 | 4.3 | 0.00 | 0.01 | 0.00 | 54 | 1006.8 |
| 20260508210016 | 67 | 237 | 2.6 | 6.1 | 0.00 | 0.01 | 0.00 | 56 | 1006.9 |
| 20260508205019 | 67 | 162 | 1.7 | 6.1 | 0.00 | 0.01 | 0.00 | 55 | 1006.9 |
| 20260508204019 | 66 | 248 | 2.6 | 6.1 | 0.00 | 0.01 | 0.00 | 57 | 1007.0 |
| 20260508203016 | 65 | 174 | 2.6 | 5.2 | 0.00 | 0.01 | 0.00 | 58 | 1007.2 |
| 20260508202017 | 65 | 157 | 1.7 | 4.3 | 0.00 | 0.01 | 0.00 | 58 | 1007.3 |
| 20260508201037 | 66 | 200 | 1.7 | 5.2 | 0.00 | 0.01 | 0.00 | 57 | 1007.5 |
| 20260508200017 | 66 | 247 | 2.6 | 7.8 | 0.00 | 0.01 | 0.00 | 58 | 1007.6 |
| 20260508195020 | 65 | 205 | 1.7 | 6.1 | 0.00 | 0.01 | 0.00 | 59 | 1007.7 |
| 20260508194037 | 66 | 236 | 2.6 | 6.1 | 0.00 | 0.01 | 0.00 | 59 | 1007.9 |
| 20260508193017 | 65 | 213 | 2.6 | 7.8 | 0.00 | 0.01 | 0.00 | 62 | 1007.9 |
| 20260508192017 | 64 | 235 | 1.7 | 5.2 | 0.00 | 0.01 | 0.00 | 62 | 1007.9 |
| 20260508191018 | 65 | 185 | 1.7 | 3.5 | 0.00 | 0.01 | 0.00 | 61 | 1008.0 |
| 20260508190018 | 65 | 226 | 1.7 | 4.3 | 0.00 | 0.01 | 0.00 | 62 | 1008.1 |
| 20260508185018 | 65 | 218 | 1.7 | 4.3 | 0.00 | 0.01 | 0.00 | 59 | 1008.2 |
| 20260508184038 | 65 | 194 | 1.7 | 4.3 | 0.00 | 0.01 | 0.00 | 58 | 1008.2 |
| 20260508183018 | 65 | 100 | 1.7 | 4.3 | 0.00 | 0.01 | 0.00 | 59 | 1008.4 |
| 20260508182018 | 64 | 95 | 1.7 | 5.2 | 0.00 | 0.01 | 0.00 | 60 | 1008.5 |
| 20260508181016 | 64 | 204 | 1.7 | 3.5 | 0.00 | 0.01 | 0.00 | 61 | 1008.6 |
| 20260508180016 | 64 | 121 | 1.7 | 4.3 | 0.00 | 0.01 | 0.00 | 62 | 1008.6 |
| 20260508175019 | 64 | 139 | 1.7 | 3.5 | 0.00 | 0.01 | 0.00 | 62 | 1008.8 |
| 20260508174019 | 64 | 96 | 1.7 | 4.3 | 0.00 | 0.01 | 0.00 | 62 | 1008.8 |
| 20260508173020 | 63 | 135 | 1.7 | 5.2 | 0.00 | 0.01 | 0.00 | 63 | 1009.0 |
| 20260508172037 | 63 | 85 | 2.6 | 4.3 | 0.00 | 0.01 | 0.00 | 63 | 1009.2 |
| 20260508171017 | 63 | 109 | 2.6 | 5.2 | 0.00 | 0.01 | 0.00 | 64 | 1009.3 |
| 20260508170017 | 62 | 192 | 1.7 | 7.0 | 0.00 | 0.01 | 0.00 | 69 | 1009.5 |
| 20260508165020 | 61 | 92 | 2.6 | 5.2 | 0.00 | 0.01 | 0.00 | 69 | 1009.6 |
| 20260508164017 | 61 | 133 | 1.7 | 4.3 | 0.00 | 0.01 | 0.00 | 68 | 1009.7 |
| 20260508163017 | 61 | 128 | 1.7 | 5.2 | 0.00 | 0.01 | 0.00 | 70 | 1009.9 |
| 20260508162017 | 61 | 111 | 1.7 | 5.2 | 0.00 | 0.01 | 0.00 | 71 | 1010.0 |
| 20260508161018 | 61 | 87 | 2.6 | 3.5 | 0.00 | 0.01 | 0.00 | 70 | 1010.0 |
| 20260508160018 | 60 | 132 | 1.7 | 4.3 | 0.00 | 0.01 | 0.00 | 71 | 1010.1 |
| 20260508155018 | 60 | 92 | 1.7 | 5.2 | 0.00 | 0.01 | 0.00 | 73 | 1010.1 |
| 20260508154118 | 60 | 152 | 1.7 | 4.3 | 0.00 | 0.01 | 0.00 | 72 | 1010.2 |
| 20260508153018 | 60 | 110 | 2.6 | 6.1 | 0.00 | 0.01 | 0.00 | 72 | 1010.2 |
| 20260508152039 | 60 | 129 | 1.7 | 3.5 | 0.00 | 0.01 | 0.00 | 73 | 1010.3 |
| 20260508151036 | 60 | 115 | 1.7 | 5.2 | 0.00 | 0.01 | 0.00 | 73 | 1010.3 |